[[{"header":{"parameterUnit":"m.s-1","parameterCategory":1,"la1":30.2991,"la2":30.254,"lo1":-89.0895,"lo2":-89.0444,"dy":0.0017,"dx":0.0017,"nx":28,"ny":28,"refTime":"2025-11-06T03:00:00:Z","depth":0,"parameterNumber":2,"parameterNumberName":"U-component_of_WINDS"},"data":[0,0,0,0,0,0,0,0,0,0,0,0,0,0,0,0,0,0,0,0,0,0,0,0,0,0,0,0,0,0,0,0,0,0,0,0,0,0,0,0,0,0,0,0,0,0,0,0,0,0,0,0,0,0,0,0,0,0,-2.8186,-2.8187,0,-2.8292,-2.8293,-2.8294,-2.8269,-2.8267,-2.8265,-2.8263,-2.8378,-2.8383,-2.8387,0,0,0,0,0,0,0,0,0,0,0,0,0,-2.7967,-2.7971,-2.8185,-2.8187,-2.8188,-2.8292,-2.8293,-2.8295,-2.827,-2.8267,-2.8265,-2.8262,-2.8376,-2.8382,-2.8388,0,0,0,0,0,0,0,0,0,0,0,0,0,-2.8067,-2.7972,-2.8185,-2.8188,-2.8189,-2.8292,-2.8293,-2.8295,-2.827,-2.8267,-2.8264,-2.8261,-2.8374,-2.8381,-2.8389,-2.8496,0,0,-2.8412,-2.8415,0,0,0,0,0,0,0,0,-2.8061,-2.8075,-2.8186,-2.8188,-2.819,-2.8264,-2.8258,-2.8363,-2.8271,-2.824,-2.8263,-2.826,-2.8343,-2.8353,-2.838,-2.8502,-2.8507,-2.8412,-2.8417,-2.842,-2.8422,0,0,0,0,0,0,0,-2.8054,-2.807,-2.8228,-2.8188,-2.819,-2.8186,-2.8197,-2.8278,-2.8307,-2.8242,-2.8241,-2.8253,-2.8343,-2.8372,-2.8382,-2.8508,-2.8412,-2.8419,-2.8423,-2.8426,-2.8728,-2.8731,0,0,0,0,0,0,-2.8045,-2.8064,-2.8224,-2.8231,-2.8116,-2.8193,-2.8205,-2.8243,-2.8306,-2.8313,-2.8256,-2.8252,-2.8361,-2.8373,-2.8386,-2.8518,-2.842,-2.8427,-2.8431,-2.8724,-2.8729,-2.8733,0,0,0,0,0,0,-2.804,-2.806,-2.822,-2.8147,-2.8167,-2.82,-2.8243,-2.8247,-2.8276,-2.8317,-2.8322,-2.828,-2.8359,-2.8376,-2.847,-2.8521,-2.843,-2.8437,-2.872,-2.8726,-2.8731,-2.8781,0,0,0,0,0,0,-2.8034,-2.8058,-2.8097,-2.8148,-2.8171,-2.83,-2.8247,-2.8251,-2.8289,-2.8284,-2.8341,-2.8347,-2.8358,-2.8459,-2.8477,-2.853,-2.8443,-2.8716,-2.8723,-2.8729,-2.8775,-2.8788,-2.8798,0,0,0,0,0,-2.8027,-2.8108,-2.8099,-2.8119,-2.8221,-2.8303,-2.8316,-2.8325,-2.8293,-2.8334,-2.836,-2.8345,-2.8513,-2.8468,-2.8489,-2.8545,-2.8712,-2.8721,-2.8728,-2.877,-2.8785,-2.8798,0,0,0,0,0,0,-2.8063,-2.8114,-2.8106,-2.8205,-2.825,-2.8298,-2.835,-2.8341,-2.8397,-2.839,-2.8402,-2.8415,-2.8511,-2.8538,-2.8487,-2.8654,-2.8608,-2.8621,-2.8633,-2.8648,-2.8659,-2.8651,-2.8449,0,0,0,0,0,-2.8083,-2.8143,-2.8185,-2.827,-2.8292,-2.8318,-2.8353,-2.8357,-2.8404,-2.8423,-2.8456,-2.8504,-2.8568,-2.8609,-2.867,-2.8779,-2.8793,-2.8828,-2.884,-2.8849,-2.886,-2.8922,-2.8939,-2.8759,-2.8759,-2.8759,0,0,-2.8124,-2.816,-2.8197,-2.8278,-2.8312,-2.8377,-2.8333,-2.8402,-2.8451,-2.8434,-2.8524,-2.8551,-2.8606,-2.8708,-2.8755,-2.8733,-2.8913,-2.886,-2.8867,-2.8872,-2.8932,-2.895,-2.8965,-2.8764,-2.8763,-2.8762,0,0,-2.8232,-2.8264,-2.8338,-2.8374,-2.8427,-2.8444,-2.8462,-2.8513,-2.8529,-2.862,-2.8609,-2.8669,-2.8777,-2.8817,-2.8852,-2.8978,-2.8968,-2.8998,-2.9059,-2.912,-2.9134,-2.9147,-2.9193,-2.921,-2.9009,-2.9009,-2.9009,0,-2.8277,-2.8371,-2.8378,-2.8449,-2.8486,-2.8473,-2.855,-2.8586,-2.8656,-2.8683,-2.8658,-2.8796,-2.8831,-2.8944,-2.8975,-2.9003,-2.9026,-2.8991,-2.9131,-2.9144,-2.9156,-2.92,-2.9218,-2.9012,-2.9012,-2.9012,-2.9011,0,-2.8424,-2.849,-2.8545,-2.8612,-2.8656,-2.8729,-2.875,-2.8794,-2.8795,-2.8815,-2.891,-2.8953,-2.9023,-2.905,-2.9052,-2.9165,-2.915,-2.9128,-2.9082,-2.9176,-2.9219,-2.9236,-2.9017,-2.9016,-2.9015,-2.9014,0,0,-2.8556,-2.8628,-2.8648,-2.868,-2.8739,-2.8791,-2.8866,-2.8933,-2.8971,-2.9022,-2.9086,-2.918,-2.916,-2.92,-2.9207,-2.926,-2.936,-2.9232,-2.9233,-2.9255,-2.9489,-2.9505,-2.9525,-2.9353,-2.9356,-2.9359,-2.9485,0,-2.867,-2.8799,-2.8809,-2.8927,-2.8989,-2.8979,-2.9045,-2.909,-2.9112,-2.917,-2.9196,-2.9262,-2.9231,-2.9255,-2.9307,-2.9336,-2.9407,-2.9327,-2.9415,-2.9418,-2.9402,-2.9546,-2.9563,-2.968,-2.9501,-2.9504,-2.9506,0,-2.8819,-2.8873,-2.8996,-2.9048,-2.9075,-2.9133,-2.9197,-2.9252,-2.9305,-2.9317,-2.9362,-2.9363,-2.9443,-2.9394,-2.9506,-2.9452,-2.9489,-2.9509,-2.9514,-2.9523,-2.9468,-2.956,-2.9717,-2.9735,-2.9532,-2.953,-2.9528,0,-2.8903,-2.9007,-2.9095,-2.9122,-2.9185,-2.9227,-2.9256,-2.9304,-2.9345,-2.9402,-2.943,-2.9496,-2.9532,-2.9585,-2.9604,-2.9567,-2.9716,-2.9669,-2.9731,-2.973,-2.9762,-2.976,-2.9928,-2.9786,-2.9785,-2.9785,-2.9785,0,-2.9029,-2.9105,-2.9134,-2.9188,-2.9274,-2.9287,-2.9373,-2.94,-2.9444,-2.9505,-2.9502,-2.956,-2.9582,-2.9644,-2.966,-2.9752,-2.9768,-2.9782,-2.9786,-2.9783,-2.9781,-2.9807,-2.98,-2.979,-2.9789,-2.9788,-2.9787,0,-2.9138,-2.916,-2.9255,-2.9307,-2.9323,-2.9384,-2.943,-2.9484,-2.9506,-2.9584,-2.9603,-2.9638,-2.9712,-2.9736,-2.9826,-2.9837,-2.9944,-2.994,-2.9926,-2.9926,-2.9987,-2.9981,-3.0178,-3.0205,-3.0045,-3.0046,-3.0047,0,-2.9216,-2.9274,-2.9333,-2.9373,-2.9403,-2.9468,-2.9509,-2.9526,-2.957,-2.9636,-2.9682,-2.9755,-2.9814,-2.9933,-2.9968,-3.0037,-3.0036,-3.01,-3.0046,-3.0042,-3.0038,-3.0034,-3.0041,-3.011,-3.0112,-3.0113,-3.0114,0,-2.9353,-2.9362,-2.9421,-2.9485,-2.9535,-2.9587,-2.9637,-2.9671,-2.9695,-2.9746,-2.982,-2.9866,-2.9958,-3.0031,-3.0102,-3.0135,-3.013,-3.0131,-3.0149,-3.0147,-3.0136,-3.0144,-2.9954,-3.0126,-3.0125,-3.0124,-3.0123,-3.0123,-2.945,-2.9502,-2.9552,-2.9619,-2.9659,-2.9706,-2.976,-2.9789,-2.9851,-2.9925,-2.9933,-3.0014,-3.0068,-3.0163,-3.0199,-3.0265,-3.0247,-3.0273,-3.028,-3.0286,-3.0291,-3.0126,-3.0278,-3.0278,-3.0277,-3.0277,-3.0277,0,-2.9587,-2.962,-2.9681,-2.9751,-2.9805,-2.9795,-2.9851,-2.9897,-2.9968,-3.0018,-3.0076,-3.0164,-3.0236,-3.0278,-3.035,-3.0395,-3.0395,-3.0414,-3.0411,-3.0419,-3.0302,-3.028,-3.0413,-3.0413,-3.0413,-3.0413,-3.0413,-3.0413,-2.9665,-2.9753,-2.9769,-2.9878,-2.9911,-2.9989,-3.0022,-3.0067,-3.0108,-3.0205,-3.0264,-3.0291,-3.0339,-3.0415,-3.0482,-3.0493,-3.052,-3.0541,-3.055,-3.0441,-3.0427,-3.0413,-3.0392,-3.0547,-3.0547,-3.0662,-3.0663,-3.0663]},{"header":{"parameterUnit":"m.s-1","parameterCategory":1,"la1":30.2991,"la2":30.254,"lo1":-89.0895,"lo2":-89.0444,"dy":0.0017,"dx":0.0017,"nx":28,"ny":28,"refTime":"2025-11-06T03:00:00:Z","depth":0,"parameterNumber":3,"parameterNumberName":"V-component_of_WINDS"},"data":[0,0,0,0,0,0,0,0,0,0,0,0,0,0,0,0,0,0,0,0,0,0,0,0,0,0,0,0,0,0,0,0,0,0,0,0,0,0,0,0,0,0,0,0,0,0,0,0,0,0,0,0,0,0,0,0,0,0,0.6708,0.6707,0,0.6641,0.664,0.6639,0.6658,0.666,0.6661,0.6663,0.6592,0.6589,0.6586,0,0,0,0,0,0,0,0,0,0,0,0,0,0.685,0.6847,0.6708,0.6707,0.6706,0.6641,0.664,0.6639,0.6658,0.666,0.6662,0.6663,0.6593,0.6589,0.6585,0,0,0,0,0,0,0,0,0,0,0,0,0,0.6786,0.6846,0.6708,0.6708,0.6707,0.6641,0.664,0.6639,0.6658,0.666,0.6662,0.6664,0.6594,0.659,0.6585,0.6514,0,0,0.657,0.6568,0,0,0,0,0,0,0,0,0.679,0.6781,0.6709,0.6708,0.6707,0.666,0.6664,0.6597,0.6657,0.6676,0.6663,0.6665,0.6613,0.6607,0.6589,0.6511,0.6508,0.657,0.6567,0.6565,0.6564,0,0,0,0,0,0,0,0.6794,0.6784,0.6681,0.6708,0.6706,0.6711,0.6704,0.6652,0.6634,0.6675,0.6676,0.6668,0.6613,0.6594,0.6588,0.6507,0.657,0.6566,0.6563,0.6561,0.6368,0.6366,0,0,0,0,0,0,0.68,0.6787,0.6683,0.6679,0.6754,0.6706,0.6699,0.6673,0.6634,0.6631,0.6666,0.6669,0.6601,0.6593,0.6586,0.6501,0.6565,0.6561,0.6558,0.637,0.6367,0.6365,0,0,0,0,0,0,0.6803,0.679,0.6686,0.6734,0.6721,0.6702,0.6673,0.6671,0.6652,0.6628,0.6625,0.6651,0.6602,0.6592,0.6532,0.6499,0.6558,0.6554,0.6373,0.6369,0.6366,0.6331,0,0,0,0,0,0,0.6807,0.6791,0.6764,0.6733,0.6718,0.6634,0.6671,0.6668,0.6644,0.6647,0.6612,0.6609,0.6603,0.6539,0.6527,0.6493,0.655,0.6376,0.6371,0.6367,0.6335,0.6326,0.6319,0,0,0,0,0,0.6812,0.6756,0.6763,0.675,0.6684,0.6632,0.6623,0.6619,0.6641,0.6614,0.6599,0.661,0.6504,0.6533,0.652,0.6484,0.6378,0.6373,0.6368,0.6338,0.6328,0.6319,0,0,0,0,0,0,0.6783,0.6752,0.6759,0.6692,0.6665,0.6635,0.6601,0.6608,0.6573,0.6578,0.6573,0.6565,0.6504,0.6488,0.652,0.6414,0.6444,0.6436,0.6426,0.6417,0.6409,0.6414,0.6546,0,0,0,0,0,0.6769,0.673,0.6705,0.6648,0.6634,0.662,0.6597,0.6596,0.6567,0.6555,0.6535,0.6506,0.6467,0.6441,0.6403,0.6333,0.6326,0.6301,0.6294,0.6288,0.6281,0.6243,0.6232,0.6348,0.6348,0.6348,0,0,0.6739,0.6718,0.6693,0.6641,0.662,0.6579,0.661,0.6565,0.6534,0.6548,0.6491,0.6475,0.6443,0.6377,0.6347,0.6362,0.6247,0.6281,0.6276,0.6273,0.6237,0.6226,0.6216,0.6345,0.6345,0.6346,0,0,0.6664,0.6644,0.6595,0.6573,0.6541,0.6532,0.6521,0.649,0.6481,0.6423,0.6433,0.6397,0.6328,0.6305,0.6284,0.6202,0.6211,0.619,0.615,0.6113,0.6104,0.6096,0.6067,0.6056,0.6183,0.6183,0.6183,0,0.6631,0.6571,0.6568,0.6523,0.65,0.6512,0.6462,0.6441,0.6398,0.6382,0.6399,0.6315,0.6293,0.6223,0.6203,0.6186,0.6172,0.6194,0.6105,0.6097,0.609,0.6062,0.6051,0.6181,0.6181,0.6181,0.6181,0,0.6532,0.649,0.6454,0.6413,0.6386,0.6339,0.6329,0.6302,0.6304,0.6293,0.6235,0.621,0.6168,0.6151,0.6152,0.6081,0.6091,0.6107,0.6137,0.6076,0.605,0.6039,0.6177,0.6178,0.6179,0.6179,0,0,0.6436,0.6396,0.6383,0.6365,0.6331,0.6298,0.6251,0.6211,0.6188,0.6158,0.6118,0.6061,0.6076,0.6052,0.6051,0.6019,0.5956,0.6038,0.6037,0.6024,0.5877,0.5865,0.5853,0.5962,0.596,0.5958,0.588,0,0.6358,0.6277,0.6274,0.62,0.6161,0.6172,0.6132,0.6106,0.6095,0.606,0.6048,0.6008,0.603,0.6016,0.5985,0.597,0.5926,0.5976,0.5925,0.5923,0.5933,0.5839,0.5826,0.5754,0.5869,0.5868,0.5866,0,0.6257,0.6225,0.6147,0.612,0.6103,0.6067,0.603,0.5997,0.5968,0.5963,0.5937,0.594,0.5893,0.5925,0.5859,0.5893,0.5872,0.5862,0.5859,0.5854,0.5891,0.5832,0.573,0.5719,0.585,0.5852,0.5853,0,0.6195,0.6133,0.6078,0.6062,0.6029,0.6003,0.5988,0.5962,0.5938,0.5906,0.589,0.5853,0.5832,0.5803,0.5796,0.5821,0.5731,0.5762,0.5724,0.5725,0.5704,0.5706,0.5598,0.5691,0.5691,0.5692,0.5692,0,0.6109,0.606,0.605,0.6016,0.5963,0.596,0.5907,0.5894,0.587,0.5834,0.5842,0.5807,0.5801,0.5765,0.576,0.5706,0.5697,0.5691,0.569,0.569,0.5691,0.5676,0.5681,0.5689,0.5689,0.569,0.569,0,0.603,0.6021,0.5963,0.5937,0.5929,0.5891,0.5868,0.5836,0.5826,0.578,0.5769,0.5754,0.5713,0.5703,0.5654,0.565,0.5587,0.5591,0.5597,0.5597,0.556,0.5563,0.5439,0.5423,0.5526,0.5525,0.5524,0,0.5976,0.5939,0.5909,0.5886,0.587,0.5832,0.5809,0.5805,0.578,0.5745,0.5717,0.5677,0.5644,0.5578,0.5562,0.5525,0.5528,0.5487,0.5522,0.5524,0.5527,0.553,0.5526,0.548,0.5479,0.5478,0.5477,0,0.588,0.5877,0.5843,0.5808,0.578,0.5751,0.5724,0.5705,0.5697,0.5669,0.5627,0.5602,0.5552,0.5512,0.5475,0.5459,0.5466,0.5466,0.5456,0.5455,0.546,0.5457,0.5578,0.5469,0.547,0.547,0.5471,0.5471,0.5811,0.578,0.5754,0.5716,0.5696,0.5671,0.564,0.5627,0.5592,0.5552,0.5552,0.5506,0.548,0.5431,0.5413,0.5377,0.539,0.5374,0.537,0.5366,0.5363,0.5466,0.537,0.537,0.537,0.5371,0.5371,0,0.5716,0.57,0.5666,0.5628,0.5599,0.561,0.5581,0.5555,0.5515,0.549,0.5458,0.5411,0.5372,0.5354,0.5316,0.5291,0.5294,0.5282,0.5283,0.528,0.5353,0.5367,0.528,0.528,0.528,0.528,0.528,0.528,0.5663,0.561,0.5605,0.5542,0.5527,0.5483,0.5466,0.5443,0.5423,0.537,0.5338,0.5327,0.5305,0.5266,0.5231,0.5227,0.5213,0.5198,0.5196,0.5265,0.5274,0.5283,0.5295,0.5195,0.5195,0.5125,0.5124,0.5124]}]]